www.pogodaiklimat.ru

Погода и климат >> Архив погоды >> Украина >> Сарата


ПОГОДА в Сарате

  • Прогноз погоды в Сарате
  • Монитор погоды в Сарате

АРХИВ ПОГОДЫ в Сарате

Время (UTC), дата Ветер
(напр.,м/с)
 
Видим.   Явления Облачность Т
(С)
Тd
(С)
f
(%)
Тe
(С)
Тes
(С)
Комфортность P
(гПа)
Po
(гПа)
Тmin
(С)
Tmax
(С)
R
(мм)
R24
(мм)
S
(см)
18 13.09 штиль 0 27 км ясно +18.6 +8.3 51 +19 +19 1023.3 1021.6 +30.2
21 13.09 штиль 0 20 км ясно +13.4 +7.6 68 +13 +13 1023.3 1021.6
00 14.09 штиль 0 17 км ясно +13.3 +7.8 69 +13 +13 1022.7 1021.0
03 14.09 СВ 1 15 км ясно +11.8 +6.9 72 +12 +12 1022.5 1020.8
06 14.09 СВ 3 18 км 8/0
[Ac trans]
+19.7 +12.0 61 +21 +23 комфорт 1022.9 1021.2 +10.4
09 14.09 СВ 5 25 км 9/0
[Ac trans]
+26.9 +11.0 37 +28 +30 жарко 1022.8 1021.2
12 14.09 С 4 25 км 9/0
[Ac trans]
+28.1 +10.8 34 +29 +31 жарко 1021.9 1020.3
15 14.09 С 5 22 км 10/10 600 м
[Cb calv]
+24.4 +12.0 46 +26 +26 жарко 1022.1 1020.5
18 14.09 С 6 20 км 10/0
[Ac und]
+20.7 +12.4 59 +23 +23 комфорт 1024.3 1022.6 +28.3
21 14.09 СВ 2 16 км ясно +13.4 +5.8 60 +13 +13 1025.8 1024.1
00 15.09 СВ 2 11 км ясно +9.6 +6.3 80 +8 +8 1026.3 1024.6
03 15.09 С 2 10 км ясно +7.1 +4.8 85 +5 +5 1026.4 1024.6
06 15.09 СВ 4 18 км 8/0
[Ci sp]
+13.6 +6.5 62 +12 +14 1027.2 1025.5 +6.2
12 15.09 Ю 1 30 км ясно +23.1 +3.1 27 +23 +33 комфорт 1024.3 1022.7
15 15.09 Ю 3 24 км 3/0
[Ci fib]
+21.8 +6.1 36 +22 +23 комфорт 1023.2 1021.5
18 15.09 ЮЗ 2 20 км ясно +15.3 +6.3 55 +15 +15 1022.7 1021.0 +24.3
21 15.09 Ю 1 18 км ясно +12.1 +7.2 72 +12 +12 1021.6 1019.9
00 16.09 штиль 0 11 км ясно +9.6 +6.9 83 +9 +9 1020.1 1018.4
03 16.09 штиль 0 7000 м дымка ясно +7.9 +7.0 94 +7 +7 1018.5 1016.8
06 16.09 ЮЗ 1 22 км ясно +16.5 +11.0 70 +17 +21 1017.7 1016.0 +7.0
09 16.09 С 1 24 км ясно +23.8 +8.6 38 +24 +36 комфорт 1016.4 1014.8
12 16.09 С 2 35 км ясно +27.5 +5.7 25 +27 +35 жарко 1014.3 1012.7
15 16.09 С 1 30 км ясно +27.2 +4.9 24 +26 +27 жарко 1012.7 1011.1
18 16.09 штиль 0 19 км ясно +15.3 +6.6 56 +15 +15 1012.9 1011.2 +28.1
21 16.09 Ю 1 14 км ясно +13.8 +10.2 79 +14 +14 1012.9 1011.2
00 17.09 штиль 0 9000 м дымка ясно +10.5 +9.1 91 +10 +10 1011.7 1010.1
03 17.09 штиль 0 6000 м дымка ясно +8.7 +7.8 94 +8 +8 1010.6 1008.9
06 17.09 СВ 4 20 км 9/0
[Ci fib]
+16.5 +9.9 65 +16 +17 1011.6 1009.9 +8.4
09 17.09 СВ 5 25 км 9/6 600 м
[Cb cap Ac und]
+21.9 +11.0 50 +24 +25 комфорт 1012.2 1010.6
12 17.09 С 3 27 км 9/6 600 м
[Cb cap Ac und]
+23.9 +11.6 46 +25 +27 комфорт 1011.8 1010.2
15 17.09 С 2 25 км 10/10 600 м
[Cb cap]
+22.8 +11.2 48 +25 +25 комфорт 1010.7 1009.1
18 17.09 штиль 0 17 км 6/0
[Ac und]
+19.1 +11.4 61 +20 +20 1011.0 1009.3 +24.2
21 17.09 З 2 15 км 8/8 600 м
[Cb cap]
+19.6 +14.2 71 +22 +22 комфорт 1009.8 1008.2
00 18.09 З 1 12 км 9/0
[Ci fib]
+18.0 +14.3 79 +19 +19 1008.3 1006.7
06 18.09 СВ 6 18 км 10/10 600 м
[Cb cap]
+19.8 +10.5 55 +21 +21 комфорт 1009.9 1008.3 +17.1
12 18.09 СВ 5 19 км 8/8 600 м
[Sc]
+17.1 +5.1 45 +16 +17 1014.4 1012.8
18 18.09 СВ 1 20 км ясно +11.8 +1.1 48 +12 +12 1018.1 1016.4 +19.8
00 19.09 С 2 17 км ясно +5.4 +1.7 77 +3 +3 1021.7 1020.0
06 19.09 СВ 1 18 км 6/4 600 м
[Sc Ci fib]
+11.5 +4.5 62 +12 +13 1023.3 1021.6 +2.0
12 19.09 С 3 40 км 8/8 600 м
[Cb cap]
+20.7 +2.0 29 +21 +23 комфорт 1020.9 1019.3
18 19.09 ЮЗ 1 18 км 6/6 600 м
[Sc]
+12.6 +6.9 68 +13 +13 1021.6 1019.9 +20.7
00 20.09 СВ 3 13 км 10/10 600 м
[Sc]
+9.6 +5.0 73 +7 +7 1021.1 1019.4
06 20.09 СВ 2 16 км 9/0
[Ci sp]
+11.1 +5.4 68 +10 +12 1021.0 1019.3 +7.8
12 20.09 СВ 5 25 км 6/6 600 м
[Cu med, cong]
+16.6 +4.4 44 +16 +17 1019.8 1018.2

 

Местоположение метеостанции Сарата (Одесская область, Украина): широта 46.02 долгота 29.67 высота над уровнем моря 14 м.

В архиве по умолчанию представлена погода в Сарате за последнюю неделю. Архивные данные за месяц целиком и за предыдущие месяцы, начиная с января 2011 года, Вы можете получить, выбрав интересующий диапазон дат из раскрывающегося списка и нажав кнопку "Ввод!".


*Определитесь, кто Вы:
робот инопланетянин человек

Внимание! Время в таблицах - всемирное. Для получения местного времени необходимо прибавить поправку, которая равна 2 ч.

Смотрите также архив погоды в соседних городах и на ближайших метеорологических станциях:

Погода в Вилково (Одесская область, Украина) (23 км)
Погода в Белгород-Днестровском (Одесская область, Украина) (57 км)
Погода в Штефан Водэ (Молдова) (58 км)
Погода в Чадыр-Лунге (Молдова) (60 км)
Погода в Комрате (Молдова) (86 км)
Погода в Ильичевске (Одесская область, Украина) (90 км)
Погода в Болграде (Одесская область, Украина) (90 км)
Погода в Заставе (Одесская область, Украина) (90 км)
Погода в Сулине (Румыния) (95 км)
Погода в Одессе (Одесская область, Украина) (96 км)

Пояснения к столбцам:

Ветер - указаны скорость ветра в м/с - средняя за 10 мин, порывы в срок и между сроками (в фигурных скобках) и направление, откуда дует ветер: С - северный, СВ - северо-восточный, В - восточный, ЮВ - юго-восточный, Ю - южный, ЮЗ - юго-западный, З - западный, СЗ - северо-западный.
Видимость - горизонтальная дальность видимости в метрах или километрах. При видимости от 1 до 10 км при отсутствии осадков обычно наблюдается дымка, при ухудшении видимости до 1 км и менее - туман. В сухую погоду видимость может ухудшаться дымом, пылью или мглою.
Явления - указаны атмосферные явления, наблюдавшиеся в срок или в последний час перед сроком; фигурными скобками обозначены явления, наблюдавшиеся между сроками (за 1-3 часа до срока); квадратными скобками обозначены град или гололедные отложения с указанием их диаметра в мм.
Облачность - указаны через наклонную черту общая и нижняя облачность в баллах и высота нижней границы облаков в метрах; квадратными скобками обозначены формы облаков: Ci - перистые, Cs - перисто-слоистые, Cc - перисто-кучевые, Ac - высококучевые, As - высокослоистые, Sc - слоисто-кучевые, Ns - слоисто-дождевые, Cu - кучевые, Cb - кучево-дождевые. Подробнее классификацию облаков см. в Атласе облаков (PDF).
T - Температура воздуха - температура, измеренная на высоте 2 м над землей.
Td - Температура точки росы - температура, при понижении до которой содержащийся в воздухе водяной пар достигнет насыщения.
f - Относительная влажность воздуха - влажноcть воздуха, измеренная на высоте 2 м над землей.
Te - Эффективная температура - температура, которую ощущает одетый по сезону человек в тени. Характеристика душности погоды. При расчете учитывается влияние влажности воздуха и скорости ветра на теплоощущения человека.
Tes - Эффективная температура на солнце - температура, которую ощущает человек, с поправкой на солнечный нагрев. Характеристика знойности погоды. Зависит от высоты солнца над горизонтом, облачности и скорости ветра. Ночью, в пасмурную погоду, а также при ветре 12 м/с и более поправка равна нулю.
P - Атмосферное давление - приведенное к уровню моря атмосферное давление.
Po - Атмосферное давление - измеренное на уровне метеостанции атмосферное давление.
Tmin - Минимальная температура - минимум температуры воздуха на высоте 2 м над землей.
Tmax - Максимальная температура - максимум температуры воздуха на высоте 2 м над землей.
R - Количество осадков - Количество выпавших осадков за период времени, мм. При наведении курсора мыши на число - период времени, за который выпало указанное количество осадков.
R24 - Количество осадков - Количество выпавших осадков за 24 часа, мм.
S - Снежный покров - Высота снежного покрова, см. При наведении курсора мыши на число - состояние снежного покрова и степень покрытия местности в баллах.